Terug naar catalogus

TITAN 3C TRANSTAGE DEB

LostHEO
NORAD 29011·DEBRIS·🇺🇸 United States

Gelanceerd Dec 21, 1965 vanaf Cape Canaveral Space Force Station

Loading…

Volgende Passages (komende 24 uur)

TLE

VerouderdSource: Space-Track

Epoch: Jan 6, 2026, 02:18 UTC

1 29011U 65108CT  26006.09611288  .00002399  00000-0  32494-2 0  9999
2 29011  26.4475   2.7849 6176495 241.2684  44.1462  3.66849841 31844

Volg TITAN 3C TRANSTAGE DEB in realtime met AllMySat

Download on the App Store